| time (UTC) | temp C | wind direction | speed KPH | gust KPH | rain 1hr cm | rain 24hr cm | rain mn cm | humidity % | barometer mb |
| 20260510140505 | 12 | 70 | 14.5 | 32.2 | 0.00 | 0.00 | 0.00 | 64 | 1017.1 |
| 20260510140005 | 12 | 92 | 9.7 | 24.1 | 0.00 | 0.00 | 0.00 | 65 | 1017.2 |
| 20260510135504 | 12 | 54 | 11.3 | 27.4 | 0.00 | 0.00 | 0.00 | 64 | 1017.2 |
| 20260510134506 | 12 | 56 | 8.0 | 20.9 | 0.00 | 0.00 | 0.00 | 65 | 1017.2 |
| 20260510134013 | 12 | 70 | 6.4 | 19.3 | 0.00 | 0.00 | 0.00 | 65 | 1017.2 |
| 20260510133506 | 12 | 76 | 12.9 | 29.0 | 0.00 | 0.00 | 0.00 | 65 | 1017.3 |
| 20260510133013 | 12 | 61 | 9.7 | 32.2 | 0.00 | 0.00 | 0.00 | 66 | 1017.3 |
| 20260510132506 | 12 | 79 | 9.7 | 32.2 | 0.00 | 0.00 | 0.00 | 66 | 1017.4 |
| 20260510132013 | 12 | 46 | 3.2 | 11.3 | 0.00 | 0.00 | 0.00 | 67 | 1017.4 |
| 20260510131013 | 12 | 64 | 4.8 | 19.3 | 0.00 | 0.00 | 0.00 | 66 | 1017.4 |
| 20260510130506 | 12 | 83 | 9.7 | 24.1 | 0.00 | 0.00 | 0.00 | 66 | 1017.4 |
| 20260510130006 | 12 | 44 | 11.3 | 22.5 | 0.00 | 0.00 | 0.00 | 65 | 1017.4 |
| 20260510125506 | 12 | 49 | 4.8 | 19.3 | 0.00 | 0.00 | 0.00 | 67 | 1017.5 |
| 20260510125013 | 12 | 92 | 11.3 | 22.5 | 0.00 | 0.00 | 0.00 | 67 | 1017.5 |
| 20260510124506 | 12 | 56 | 9.7 | 24.1 | 0.00 | 0.00 | 0.00 | 67 | 1017.6 |
| 20260510123506 | 12 | 98 | 14.5 | 32.2 | 0.00 | 0.00 | 0.00 | 67 | 1017.8 |
| 20260510123013 | 12 | 98 | 14.5 | 25.7 | 0.00 | 0.00 | 0.00 | 67 | 1017.9 |
| 20260510122506 | 12 | 78 | 8.0 | 20.9 | 0.00 | 0.00 | 0.00 | 68 | 1017.8 |
| 20260510121506 | 12 | 93 | 16.1 | 38.6 | 0.00 | 0.00 | 0.00 | 67 | 1017.8 |
| 20260510121013 | 12 | 84 | 14.5 | 32.2 | 0.00 | 0.00 | 0.00 | 67 | 1017.8 |
| 20260510120506 | 12 | 93 | 11.3 | 32.2 | 0.00 | 0.00 | 0.00 | 68 | 1017.8 |
| 20260510120005 | 12 | 101 | 14.5 | 25.7 | 0.00 | 0.00 | 0.00 | 68 | 1017.8 |
| 20260510115505 | 12 | 100 | 14.5 | 32.2 | 0.00 | 0.00 | 0.00 | 68 | 1017.9 |
| 20260510115013 | 12 | 89 | 14.5 | 32.2 | 0.00 | 0.00 | 0.00 | 68 | 1017.9 |
| 20260510114013 | 12 | 80 | 9.7 | 19.3 | 0.00 | 0.00 | 0.00 | 68 | 1018.2 |
| 20260510113506 | 12 | 99 | 11.3 | 25.7 | 0.00 | 0.00 | 0.00 | 68 | 1018.2 |
| 20260510113013 | 12 | 75 | 9.7 | 20.9 | 0.00 | 0.00 | 0.00 | 68 | 1018.4 |
| 20260510111505 | 12 | 87 | 9.7 | 24.1 | 0.00 | 0.00 | 0.00 | 68 | 1018.6 |
| 20260510111013 | 12 | 99 | 14.5 | 32.2 | 0.00 | 0.00 | 0.00 | 67 | 1018.7 |
| 20260510105505 | 12 | 90 | 9.7 | 22.5 | 0.00 | 0.00 | 0.00 | 67 | 1018.7 |
| 20260510105016 | 12 | 99 | 14.5 | 32.2 | 0.00 | 0.00 | 0.00 | 67 | 1018.7 |
| 20260510104505 | 12 | 91 | 19.3 | 38.6 | 0.00 | 0.00 | 0.00 | 66 | 1018.7 |
| 20260510104013 | 12 | 107 | 19.3 | 32.2 | 0.00 | 0.00 | 0.00 | 66 | 1018.6 |
| 20260510103506 | 12 | 77 | 8.0 | 27.4 | 0.00 | 0.00 | 0.00 | 67 | 1018.7 |
| 20260510103013 | 12 | 55 | 8.0 | 29.0 | 0.00 | 0.00 | 0.00 | 66 | 1018.6 |
| 20260510102505 | 12 | 53 | 9.7 | 29.0 | 0.00 | 0.00 | 0.00 | 65 | 1018.6 |
| 20260510102027 | 12 | 65 | 9.7 | 24.1 | 0.00 | 0.00 | 0.00 | 67 | 1018.5 |
| 20260510101506 | 12 | 101 | 16.1 | 32.2 | 0.00 | 0.00 | 0.00 | 67 | 1018.5 |
| 20260510101013 | 12 | 67 | 9.7 | 24.1 | 0.00 | 0.00 | 0.00 | 68 | 1018.7 |
| 20260510100005 | 12 | 70 | 8.0 | 19.3 | 0.00 | 0.00 | 0.00 | 69 | 1018.6 |
| 20260510095506 | 12 | 51 | 11.3 | 32.2 | 0.00 | 0.00 | 0.00 | 68 | 1018.6 |
| 20260510095012 | 12 | 74 | 9.7 | 19.3 | 0.00 | 0.00 | 0.00 | 70 | 1018.6 |
| 20260510094013 | 12 | 66 | 11.3 | 27.4 | 0.00 | 0.00 | 0.00 | 70 | 1018.7 |
| 20260510093506 | 12 | 60 | 9.7 | 27.4 | 0.00 | 0.00 | 0.00 | 71 | 1018.6 |
| 20260510093013 | 12 | 53 | 8.0 | 29.0 | 0.00 | 0.00 | 0.00 | 70 | 1018.7 |
| 20260510092505 | 12 | 70 | 9.7 | 19.3 | 0.00 | 0.00 | 0.00 | 71 | 1018.7 |
| 20260510091505 | 11 | 61 | 14.5 | 35.4 | 0.00 | 0.00 | 0.00 | 71 | 1018.8 |
| 20260510091013 | 11 | 89 | 17.7 | 41.8 | 0.00 | 0.00 | 0.00 | 71 | 1018.8 |
| 20260510090005 | 11 | 55 | 12.9 | 25.7 | 0.00 | 0.00 | 0.00 | 72 | 1019.0 |
| 20260510085505 | 11 | 94 | 20.9 | 33.8 | 0.00 | 0.00 | 0.00 | 72 | 1019.0 |
| 20260510085012 | 11 | 85 | 19.3 | 33.8 | 0.00 | 0.00 | 0.00 | 72 | 1019.0 |
| 20260510084506 | 11 | 77 | 19.3 | 32.2 | 0.00 | 0.00 | 0.00 | 72 | 1019.1 |
| 20260510084012 | 11 | 65 | 8.0 | 22.5 | 0.00 | 0.00 | 0.00 | 74 | 1019.1 |
| 20260510083505 | 11 | 78 | 19.3 | 32.2 | 0.00 | 0.00 | 0.00 | 74 | 1019.1 |
| 20260510083012 | 11 | 78 | 8.0 | 19.3 | 0.00 | 0.00 | 0.00 | 74 | 1019.2 |
| 20260510082520 | 11 | 63 | 8.0 | 22.5 | 0.00 | 0.00 | 0.00 | 75 | 1019.2 |
| 20260510082012 | 11 | 84 | 11.3 | 24.1 | 0.00 | 0.00 | 0.00 | 75 | 1019.1 |
| 20260510081012 | 11 | 82 | 9.7 | 20.9 | 0.00 | 0.00 | 0.00 | 76 | 1019.1 |
| 20260510080506 | 11 | 90 | 11.3 | 32.2 | 0.00 | 0.00 | 0.00 | 76 | 1019.1 |
| 20260510080005 | 10 | 80 | 11.3 | 24.1 | 0.00 | 0.00 | 0.00 | 76 | 1019.1 |
| 20260510075505 | 10 | 80 | 9.7 | 25.7 | 0.00 | 0.00 | 0.00 | 77 | 1019.1 |
| 20260510075013 | 10 | 77 | 8.0 | 19.3 | 0.00 | 0.00 | 0.00 | 78 | 1019.1 |
| 20260510074508 | 10 | 92 | 6.4 | 19.3 | 0.00 | 0.00 | 0.00 | 79 | 1019.1 |
| 20260510074012 | 10 | 59 | 9.7 | 20.9 | 0.00 | 0.00 | 0.00 | 79 | 1019.2 |
| 20260510073505 | 10 | 75 | 8.0 | 25.7 | 0.00 | 0.00 | 0.00 | 80 | 1019.2 |
| 20260510073012 | 10 | 41 | 11.3 | 20.9 | 0.00 | 0.00 | 0.00 | 80 | 1019.2 |
| 20260510072505 | 10 | 69 | 8.0 | 19.3 | 0.00 | 0.00 | 0.00 | 81 | 1019.2 |
| 20260510071505 | 10 | 76 | 14.5 | 24.1 | 0.00 | 0.00 | 0.00 | 81 | 1019.2 |
| 20260510071012 | 10 | 81 | 9.7 | 19.3 | 0.00 | 0.00 | 0.00 | 82 | 1019.2 |
| 20260510070506 | 10 | 58 | 8.0 | 20.9 | 0.00 | 0.00 | 0.00 | 82 | 1019.1 |
| 20260510070006 | 10 | 76 | 8.0 | 24.1 | 0.00 | 0.00 | 0.00 | 82 | 1019.1 |
| 20260510065508 | 10 | 70 | 11.3 | 27.4 | 0.00 | 0.00 | 0.00 | 82 | 1019.1 |
| 20260510065012 | 10 | 88 | 8.0 | 24.1 | 0.00 | 0.00 | 0.00 | 82 | 1019.1 |
| 20260510064505 | 10 | 87 | 9.7 | 29.0 | 0.00 | 0.00 | 0.00 | 83 | 1019.1 |
| 20260510063505 | 9 | 65 | 8.0 | 25.7 | 0.00 | 0.00 | 0.00 | 82 | 1019.0 |
| 20260510063013 | 9 | 93 | 9.7 | 20.9 | 0.00 | 0.00 | 0.00 | 82 | 1019.0 |
| 20260510062505 | 9 | 70 | 8.0 | 20.9 | 0.00 | 0.00 | 0.00 | 82 | 1018.8 |
| 20260510062012 | 9 | 71 | 11.3 | 32.2 | 0.00 | 0.00 | 0.00 | 83 | 1018.8 |
| 20260510060506 | 9 | 78 | 9.7 | 20.9 | 0.00 | 0.00 | 0.00 | 83 | 1018.8 |
| 20260510055505 | 9 | 54 | 8.0 | 19.3 | 0.00 | 0.00 | 0.00 | 85 | 1018.8 |
| 20260510055013 | 9 | 55 | 9.7 | 20.9 | 0.00 | 0.00 | 0.00 | 84 | 1018.7 |
| 20260510054505 | 9 | 61 | 14.5 | 22.5 | 0.00 | 0.00 | 0.00 | 85 | 1018.6 |
| 20260510054012 | 9 | 69 | 4.8 | 25.7 | 0.00 | 0.00 | 0.00 | 85 | 1018.7 |
| 20260510053506 | 9 | 56 | 8.0 | 25.7 | 0.00 | 0.00 | 0.00 | 85 | 1018.7 |
| 20260510053012 | 9 | 50 | 9.7 | 24.1 | 0.00 | 0.00 | 0.00 | 85 | 1018.6 |
| 20260510052505 | 9 | 59 | 8.0 | 22.5 | 0.00 | 0.00 | 0.00 | 85 | 1018.6 |
| 20260510052012 | 9 | 63 | 8.0 | 20.9 | 0.00 | 0.00 | 0.00 | 85 | 1018.4 |
| 20260510051505 | 9 | 56 | 8.0 | 16.1 | 0.00 | 0.00 | 0.00 | 85 | 1018.5 |
| 20260510051012 | 9 | 53 | 8.0 | 16.1 | 0.00 | 0.00 | 0.00 | 85 | 1018.4 |
| 20260510050505 | 9 | 77 | 6.4 | 20.9 | 0.00 | 0.00 | 0.00 | 85 | 1018.4 |
| 20260510050005 | 8 | 70 | 9.7 | 25.7 | 0.00 | 0.00 | 0.00 | 85 | 1018.5 |
| 20260510045505 | 8 | 54 | 8.0 | 19.3 | 0.00 | 0.00 | 0.00 | 85 | 1018.5 |
| 20260510045012 | 8 | 54 | 4.8 | 22.5 | 0.00 | 0.00 | 0.00 | 85 | 1018.5 |
| 20260510044505 | 8 | 71 | 4.8 | 19.3 | 0.00 | 0.00 | 0.00 | 85 | 1018.4 |
| 20260510044012 | 8 | 72 | 8.0 | 22.5 | 0.00 | 0.00 | 0.00 | 85 | 1018.4 |
| 20260510043505 | 8 | 71 | 8.0 | 22.5 | 0.00 | 0.00 | 0.00 | 85 | 1018.4 |
| 20260510043012 | 8 | 69 | 4.8 | 19.3 | 0.00 | 0.00 | 0.00 | 85 | 1018.4 |
| 20260510042012 | 8 | 63 | 8.0 | 16.1 | 0.00 | 0.00 | 0.00 | 85 | 1018.5 |
| 20260510041505 | 8 | 64 | 9.7 | 20.9 | 0.00 | 0.00 | 0.00 | 85 | 1018.5 |
| 20260510041012 | 8 | 54 | 6.4 | 20.9 | 0.00 | 0.00 | 0.00 | 85 | 1018.5 |
| 20260510040005 | 8 | 58 | 8.0 | 19.3 | 0.00 | 0.00 | 0.00 | 85 | 1018.6 |
| 20260510035505 | 8 | 61 | 9.7 | 19.3 | 0.00 | 0.00 | 0.00 | 85 | 1018.5 |
| 20260510035012 | 8 | 53 | 4.8 | 19.3 | 0.00 | 0.00 | 0.00 | 85 | 1018.6 |
| 20260510034505 | 8 | 70 | 9.7 | 20.9 | 0.00 | 0.00 | 0.00 | 85 | 1018.7 |
| 20260510034012 | 8 | 52 | 8.0 | 20.9 | 0.00 | 0.00 | 0.00 | 85 | 1018.8 |
| 20260510033506 | 8 | 56 | 4.8 | 11.3 | 0.00 | 0.00 | 0.00 | 85 | 1018.8 |
| 20260510032505 | 8 | 48 | 6.4 | 19.3 | 0.00 | 0.00 | 0.00 | 85 | 1018.9 |
| 20260510032012 | 8 | 65 | 4.8 | 16.1 | 0.00 | 0.00 | 0.00 | 85 | 1018.9 |
| 20260510031505 | 9 | 82 | 8.0 | 19.3 | 0.00 | 0.00 | 0.00 | 85 | 1019.0 |
| 20260510031012 | 9 | 53 | 6.4 | 14.5 | 0.00 | 0.00 | 0.00 | 85 | 1019.0 |
| 20260510030505 | 9 | 46 | 9.7 | 19.3 | 0.00 | 0.00 | 0.00 | 85 | 1019.0 |
| 20260510025027 | 9 | 68 | 8.0 | 19.3 | 0.00 | 0.00 | 0.00 | 85 | 1019.1 |
| 20260510024505 | 9 | 46 | 6.4 | 24.1 | 0.00 | 0.00 | 0.00 | 85 | 1019.0 |
| 20260510024012 | 9 | 61 | 9.7 | 25.7 | 0.00 | 0.00 | 0.00 | 85 | 1019.1 |
| 20260510023505 | 9 | 66 | 8.0 | 20.9 | 0.00 | 0.00 | 0.00 | 85 | 1018.9 |
| 20260510023013 | 9 | 52 | 8.0 | 19.3 | 0.00 | 0.00 | 0.00 | 85 | 1018.9 |
| 20260510022505 | 9 | 66 | 8.0 | 19.3 | 0.00 | 0.00 | 0.00 | 85 | 1019.0 |
| 20260510022012 | 9 | 63 | 9.7 | 24.1 | 0.00 | 0.00 | 0.00 | 85 | 1018.9 |
| 20260510021505 | 9 | 53 | 8.0 | 20.9 | 0.00 | 0.00 | 0.00 | 85 | 1018.9 |
| 20260510021012 | 9 | 61 | 9.7 | 32.2 | 0.00 | 0.00 | 0.00 | 85 | 1019.0 |
| 20260510020005 | 9 | 52 | 8.0 | 19.3 | 0.00 | 0.00 | 0.00 | 84 | 1019.2 |
| 20260510015012 | 9 | 58 | 4.8 | 22.5 | 0.00 | 0.00 | 0.00 | 84 | 1019.4 |
| 20260510014505 | 9 | 78 | 4.8 | 12.9 | 0.00 | 0.00 | 0.00 | 83 | 1019.4 |
| 20260510014012 | 9 | 60 | 4.8 | 19.3 | 0.00 | 0.00 | 0.00 | 83 | 1019.6 |
| 20260510013505 | 9 | 63 | 3.2 | 16.1 | 0.00 | 0.00 | 0.00 | 82 | 1019.5 |
| 20260510013012 | 9 | 50 | 4.8 | 19.3 | 0.00 | 0.00 | 0.00 | 82 | 1019.3 |
| 20260510012505 | 9 | 56 | 4.8 | 14.5 | 0.00 | 0.00 | 0.00 | 81 | 1019.3 |
| 20260510012012 | 9 | 56 | 4.8 | 12.9 | 0.00 | 0.00 | 0.00 | 80 | 1019.1 |
| 20260510011505 | 10 | 40 | 4.8 | 12.9 | 0.00 | 0.00 | 0.00 | 79 | 1019.1 |
| 20260510011012 | 10 | 63 | 6.4 | 19.3 | 0.00 | 0.00 | 0.00 | 78 | 1019.0 |
| 20260510010506 | 10 | 38 | 4.8 | 12.9 | 0.00 | 0.00 | 0.00 | 77 | 1019.1 |
| 20260510010005 | 10 | 59 | 8.0 | 19.3 | 0.00 | 0.00 | 0.00 | 76 | 1019.1 |
| 20260510005505 | 10 | 57 | 4.8 | 19.3 | 0.00 | 0.00 | 0.00 | 75 | 1019.1 |
| 20260510005012 | 10 | 55 | 4.8 | 19.3 | 0.00 | 0.00 | 0.00 | 74 | 1019.1 |
| 20260510004505 | 10 | 48 | 8.0 | 19.3 | 0.00 | 0.00 | 0.00 | 73 | 1019.1 |
| 20260510003505 | 10 | 57 | 8.0 | 20.9 | 0.00 | 0.00 | 0.00 | 71 | 1019.1 |
| 20260510003012 | 10 | 70 | 8.0 | 19.3 | 0.00 | 0.00 | 0.00 | 70 | 1019.2 |
| 20260510002012 | 11 | 64 | 8.0 | 24.1 | 0.00 | 0.00 | 0.00 | 67 | 1019.3 |
| 20260510001504 | 11 | 66 | 6.4 | 19.3 | 0.00 | 0.00 | 0.00 | 67 | 1019.3 |
| 20260510001012 | 11 | 67 | 3.2 | 32.2 | 0.00 | 0.00 | 0.00 | 67 | 1019.2 |
| 20260510000505 | 11 | 63 | 4.8 | 16.1 | 0.00 | 0.00 | 0.00 | 67 | 1019.2 |
| 20260510000004 | 11 | 54 | 4.8 | 16.1 | 0.00 | 0.00 | 0.00 | 67 | 1019.1 |
| 20260509235504 | 11 | 79 | 8.0 | 24.1 | 0.00 | 0.00 | 0.00 | 67 | 1019.1 |
| 20260509235012 | 11 | 73 | 6.4 | 20.9 | 0.00 | 0.00 | 0.00 | 67 | 1019.2 |
| 20260509234504 | 11 | 90 | 9.7 | 22.5 | 0.00 | 0.00 | 0.00 | 67 | 1019.2 |
| 20260509234012 | 12 | 74 | 6.4 | 19.3 | 0.00 | 0.00 | 0.00 | 66 | 1019.2 |
| 20260509233505 | 12 | 84 | 11.3 | 24.1 | 0.00 | 0.00 | 0.00 | 66 | 1019.3 |
| 20260509233012 | 12 | 79 | 8.0 | 19.3 | 0.00 | 0.00 | 0.00 | 65 | 1019.3 |
| 20260509232012 | 12 | 87 | 8.0 | 24.1 | 0.00 | 0.00 | 0.00 | 63 | 1019.4 |
| 20260509231505 | 12 | 87 | 9.7 | 19.3 | 0.00 | 0.00 | 0.00 | 62 | 1019.4 |
| 20260509231012 | 12 | 96 | 12.9 | 22.5 | 0.00 | 0.00 | 0.00 | 62 | 1019.3 |
| 20260509230505 | 12 | 79 | 8.0 | 22.5 | 0.00 | 0.00 | 0.00 | 61 | 1019.4 |
| 20260509225504 | 12 | 76 | 8.0 | 19.3 | 0.00 | 0.00 | 0.00 | 59 | 1019.5 |
| 20260509225012 | 12 | 79 | 4.8 | 19.3 | 0.00 | 0.00 | 0.00 | 60 | 1019.5 |
| 20260509224505 | 12 | 87 | 11.3 | 20.9 | 0.00 | 0.00 | 0.00 | 60 | 1019.3 |
| 20260509224012 | 12 | 82 | 9.7 | 14.5 | 0.00 | 0.00 | 0.00 | 59 | 1019.3 |
| 20260509223505 | 12 | 92 | 9.7 | 22.5 | 0.00 | 0.00 | 0.00 | 58 | 1019.2 |
| 20260509223011 | 12 | 84 | 9.7 | 20.9 | 0.00 | 0.00 | 0.00 | 57 | 1019.2 |
| 20260509222504 | 12 | 87 | 9.7 | 19.3 | 0.00 | 0.00 | 0.00 | 57 | 1019.2 |
| 20260509222012 | 13 | 99 | 9.7 | 16.1 | 0.00 | 0.00 | 0.00 | 56 | 1019.3 |
| 20260509221504 | 13 | 92 | 11.3 | 19.3 | 0.00 | 0.00 | 0.00 | 56 | 1019.2 |
| 20260509220505 | 13 | 71 | 3.2 | 19.3 | 0.00 | 0.00 | 0.00 | 55 | 1019.3 |
| 20260509220004 | 13 | 111 | 3.2 | 9.7 | 0.00 | 0.00 | 0.00 | 55 | 1019.3 |
| 20260509215504 | 13 | 83 | 1.6 | 9.7 | 0.00 | 0.00 | 0.00 | 54 | 1019.2 |
| 20260509214504 | 13 | 84 | 4.8 | 11.3 | 0.00 | 0.00 | 0.00 | 53 | 1019.2 |
| 20260509214011 | 13 | 97 | 8.0 | 14.5 | 0.00 | 0.00 | 0.00 | 53 | 1019.2 |
| 20260509213012 | 13 | 93 | 4.8 | 16.1 | 0.00 | 0.00 | 0.00 | 53 | 1019.1 |
| 20260509212505 | 13 | 93 | 8.0 | 16.1 | 0.00 | 0.00 | 0.00 | 52 | 1019.0 |
| 20260509212011 | 14 | 85 | 8.0 | 14.5 | 0.00 | 0.00 | 0.00 | 52 | 1019.0 |
| 20260509211504 | 14 | 99 | 9.7 | 19.3 | 0.00 | 0.00 | 0.00 | 51 | 1018.8 |
| 20260509210505 | 14 | 94 | 8.0 | 19.3 | 0.00 | 0.00 | 0.00 | 50 | 1018.9 |
| 20260509210005 | 14 | 95 | 4.8 | 12.9 | 0.00 | 0.00 | 0.00 | 49 | 1018.9 |
| 20260509205504 | 14 | 107 | 8.0 | 16.1 | 0.00 | 0.00 | 0.00 | 49 | 1018.9 |
| 20260509205011 | 14 | 94 | 9.7 | 16.1 | 0.00 | 0.00 | 0.00 | 49 | 1018.9 |
| 20260509204012 | 14 | 91 | 8.0 | 14.5 | 0.00 | 0.00 | 0.00 | 48 | 1018.9 |
| 20260509203504 | 14 | 116 | 4.8 | 12.9 | 0.00 | 0.00 | 0.00 | 47 | 1018.9 |
| 20260509202504 | 15 | 101 | 6.4 | 19.3 | 0.00 | 0.00 | 0.00 | 46 | 1018.8 |
| 20260509202012 | 15 | 126 | 8.0 | 19.3 | 0.00 | 0.00 | 0.00 | 46 | 1018.7 |
| 20260509201504 | 15 | 108 | 9.7 | 19.3 | 0.00 | 0.00 | 0.00 | 45 | 1018.5 |
| 20260509201012 | 15 | 70 | 6.4 | 14.5 | 0.00 | 0.00 | 0.00 | 44 | 1018.4 |
| 20260509200505 | 15 | 124 | 9.7 | 14.5 | 0.00 | 0.00 | 0.00 | 43 | 1018.5 |
| 20260509200005 | 15 | 111 | 9.7 | 20.9 | 0.00 | 0.00 | 0.00 | 42 | 1018.4 |
| 20260509195504 | 15 | 126 | 11.3 | 19.3 | 0.00 | 0.00 | 0.00 | 42 | 1018.5 |
| 20260509195012 | 15 | 123 | 6.4 | 19.3 | 0.00 | 0.00 | 0.00 | 41 | 1018.5 |
| 20260509194504 | 15 | 120 | 9.7 | 19.3 | 0.00 | 0.00 | 0.00 | 41 | 1018.5 |
| 20260509194012 | 15 | 121 | 8.0 | 16.1 | 0.00 | 0.00 | 0.00 | 40 | 1018.4 |
| 20260509193504 | 15 | 120 | 8.0 | 14.5 | 0.00 | 0.00 | 0.00 | 40 | 1018.4 |
| 20260509192504 | 16 | 124 | 9.7 | 19.3 | 0.00 | 0.00 | 0.00 | 40 | 1018.3 |
| 20260509192011 | 16 | 122 | 9.7 | 16.1 | 0.00 | 0.00 | 0.00 | 40 | 1018.3 |
| 20260509191504 | 16 | 97 | 9.7 | 22.5 | 0.00 | 0.00 | 0.00 | 40 | 1018.2 |
| 20260509191011 | 16 | 104 | 9.7 | 20.9 | 0.00 | 0.00 | 0.00 | 39 | 1018.2 |
| 20260509185504 | 16 | 136 | 14.5 | 24.1 | 0.00 | 0.00 | 0.00 | 39 | 1018.3 |
| 20260509185011 | 16 | 121 | 9.7 | 16.1 | 0.00 | 0.00 | 0.00 | 41 | 1018.2 |
| 20260509184504 | 17 | 119 | 12.9 | 22.5 | 0.00 | 0.00 | 0.00 | 41 | 1018.2 |
| 20260509184012 | 17 | 140 | 11.3 | 19.3 | 0.00 | 0.00 | 0.00 | 41 | 1018.1 |
| 20260509183504 | 17 | 115 | 9.7 | 19.3 | 0.00 | 0.00 | 0.00 | 41 | 1018.1 |
| 20260509183012 | 17 | 112 | 14.5 | 24.1 | 0.00 | 0.00 | 0.00 | 41 | 1018.2 |
| 20260509182504 | 17 | 104 | 6.4 | 16.1 | 0.00 | 0.00 | 0.00 | 43 | 1018.2 |
| 20260509182012 | 17 | 106 | 8.0 | 12.9 | 0.00 | 0.00 | 0.00 | 43 | 1018.1 |
| 20260509181504 | 17 | 111 | 8.0 | 16.1 | 0.00 | 0.00 | 0.00 | 43 | 1018.0 |
| 20260509181011 | 17 | 112 | 8.0 | 19.3 | 0.00 | 0.00 | 0.00 | 42 | 1018.0 |
| 20260509180505 | 17 | 132 | 8.0 | 19.3 | 0.00 | 0.00 | 0.00 | 43 | 1018.0 |
| 20260509180004 | 17 | 114 | 9.7 | 19.3 | 0.00 | 0.00 | 0.00 | 43 | 1017.9 |
| 20260509175504 | 17 | 107 | 11.3 | 19.3 | 0.00 | 0.00 | 0.00 | 43 | 1017.8 |
| 20260509175012 | 17 | 113 | 6.4 | 19.3 | 0.00 | 0.00 | 0.00 | 43 | 1017.8 |
| 20260509174011 | 17 | 131 | 9.7 | 24.1 | 0.00 | 0.00 | 0.00 | 43 | 1017.8 |
| 20260509173504 | 18 | 135 | 12.9 | 24.1 | 0.00 | 0.00 | 0.00 | 42 | 1017.7 |
| 20260509172504 | 18 | 111 | 11.3 | 27.4 | 0.00 | 0.00 | 0.00 | 42 | 1017.7 |
| 20260509172011 | 18 | 116 | 9.7 | 24.1 | 0.00 | 0.00 | 0.00 | 43 | 1017.8 |
| 20260509171504 | 18 | 156 | 11.3 | 19.3 | 0.00 | 0.00 | 0.00 | 43 | 1017.9 |
| 20260509171011 | 18 | 125 | 14.5 | 25.7 | 0.00 | 0.00 | 0.00 | 43 | 1017.9 |
| 20260509165504 | 18 | 136 | 9.7 | 22.5 | 0.00 | 0.00 | 0.00 | 43 | 1017.8 |
| 20260509165012 | 19 | 118 | 11.3 | 20.9 | 0.00 | 0.00 | 0.00 | 44 | 1017.9 |
| 20260509164504 | 19 | 140 | 16.1 | 27.4 | 0.00 | 0.00 | 0.00 | 43 | 1017.7 |
| 20260509164012 | 19 | 114 | 11.3 | 25.7 | 0.00 | 0.00 | 0.00 | 42 | 1017.8 |
| 20260509163504 | 19 | 123 | 16.1 | 27.4 | 0.00 | 0.00 | 0.00 | 43 | 1017.7 |
| 20260509163011 | 19 | 150 | 11.3 | 29.0 | 0.00 | 0.00 | 0.00 | 43 | 1017.7 |
| 20260509161505 | 20 | 148 | 19.3 | 32.2 | 0.00 | 0.00 | 0.00 | 42 | 1018.0 |
| 20260509161011 | 20 | 152 | 16.1 | 32.2 | 0.00 | 0.00 | 0.00 | 42 | 1018.0 |
| 20260509160004 | 20 | 128 | 16.1 | 25.7 | 0.00 | 0.00 | 0.00 | 41 | 1018.0 |
| 20260509155011 | 20 | 173 | 14.5 | 22.5 | 0.00 | 0.00 | 0.00 | 41 | 1017.9 |
| 20260509154011 | 20 | 157 | 11.3 | 20.9 | 0.00 | 0.00 | 0.00 | 42 | 1018.0 |
| 20260509153504 | 20 | 144 | 9.7 | 20.9 | 0.00 | 0.00 | 0.00 | 42 | 1018.0 |
| 20260509153011 | 20 | 164 | 14.5 | 22.5 | 0.00 | 0.00 | 0.00 | 43 | 1018.0 |
| 20260509152504 | 20 | 174 | 8.0 | 22.5 | 0.00 | 0.00 | 0.00 | 43 | 1017.9 |
| 20260509152012 | 20 | 127 | 11.3 | 22.5 | 0.00 | 0.00 | 0.00 | 41 | 1017.9 |
| 20260509151504 | 20 | 100 | 11.3 | 25.7 | 0.00 | 0.00 | 0.00 | 39 | 1017.9 |
| 20260509150505 | 20 | 111 | 8.0 | 19.3 | 0.00 | 0.00 | 0.00 | 41 | 1017.8 |
| 20260509150004 | 20 | 132 | 11.3 | 20.9 | 0.00 | 0.00 | 0.00 | 39 | 1017.8 |
| 20260509145504 | 20 | 114 | 9.7 | 24.1 | 0.00 | 0.00 | 0.00 | 40 | 1017.9 |
| 20260509145011 | 20 | 130 | 8.0 | 19.3 | 0.00 | 0.00 | 0.00 | 39 | 1017.8 |
| 20260509144504 | 20 | 104 | 12.9 | 22.5 | 0.00 | 0.00 | 0.00 | 39 | 1017.7 |
| 20260509143504 | 21 | 112 | 8.0 | 22.5 | 0.00 | 0.00 | 0.00 | 39 | 1017.7 |
| 20260509142011 | 21 | 92 | 9.7 | 19.3 | 0.00 | 0.00 | 0.00 | 38 | 1017.5 |
| 20260509141504 | 21 | 90 | 8.0 | 24.1 | 0.00 | 0.00 | 0.00 | 39 | 1017.5 |
| 20260509141011 | 21 | 103 | 12.9 | 24.1 | 0.00 | 0.00 | 0.00 | 38 | 1017.5 |